contact:dominique.lefevre@mio.osupytheas.fr, maurice.libes@osupytheas.fr, didier.mallarino@osupytheas.fr
Project:EMSO http://www.emso-fr.org/EMSO-France
Depth: 2436.0 m
Title:EMSO Ligure Ouest : Data MII capteur AQUADOPP
Date,Latitude,Longitude,X_East,Y_North,Z_Up,Amplitude_X,Amplitude_Y,Amplitude_Z,Batterie,SoundSpeed,Heading,Pitch,Roll,Pressure,TIS,Speed,Direction
, degrees North, degrees East, m.s-1, m.s-1,m.s-1, 1, 1, 1, Volt, m.s-1, degree, degree, degree, dbar, degree_C, m.s-1, degree
2022-04-15T00:04:03,42.805,6.029,0.02,0.011,0.01,103.0,107.0,102.0,13.3,1505.2,321.5,-0.7,1.8,2470.707,13.28,0.022,61.2
2022-04-15T00:07:03,42.805,6.029,0.056,-0.008,0.023,103.0,107.0,101.0,13.4,1505.2,332.8,-0.8,1.9,2470.69,13.28,0.056,98.1
2022-04-15T00:10:03,42.805,6.029,0.05,0.009,0.042,103.0,107.0,101.0,13.3,1505.2,329.2,-0.7,1.8,2470.688,13.28,0.05,79.8
2022-04-15T00:13:03,42.805,6.029,0.05,0.004,0.0,103.0,107.0,100.0,13.4,1505.2,330.5,-0.8,1.8,2470.671,13.28,0.05,85.4
2022-04-15T00:16:03,42.805,6.029,0.028,0.0,0.0,103.0,108.0,101.0,13.4,1505.2,324.9,-0.8,1.8,2470.688,13.28,0.028,90.0
2022-04-15T00:19:03,42.805,6.029,0.045,0.01,0.005,102.0,105.0,102.0,13.4,1505.2,324.5,-0.7,1.8,2470.692,13.28,0.046,77.5
2022-04-15T00:22:03,42.805,6.029,0.036,0.003,0.029,103.0,106.0,101.0,13.4,1505.2,325.5,-0.8,1.8,2470.684,13.28,0.036,85.2
2022-04-15T00:25:03,42.805,6.029,0.091,0.011,0.07,102.0,106.0,101.0,13.4,1505.2,325.2,-0.7,1.8,2470.688,13.28,0.091,83.1
2022-04-15T00:28:03,42.805,6.029,0.031,0.001,0.019,103.0,105.0,100.0,13.4,1505.2,329.2,-0.7,1.8,2470.659,13.28,0.031,88.2
2022-04-15T00:31:03,42.805,6.029,0.053,0.001,0.03,102.0,107.0,101.0,13.4,1505.2,321.7,-0.7,1.8,2470.681,13.28,0.053,88.9
2022-04-15T00:34:03,42.805,6.029,0.031,-0.012,-0.008,102.0,106.0,101.0,13.4,1505.2,331.2,-0.7,1.8,2470.663,13.28,0.033,111.2
2022-04-15T00:37:03,42.805,6.029,0.059,0.009,0.035,103.0,106.0,102.0,13.3,1505.2,324.3,-0.8,1.8,2470.694,13.28,0.059,81.3
2022-04-15T00:40:03,42.805,6.029,0.032,-0.015,-0.005,103.0,107.0,101.0,13.4,1505.2,328.9,-0.8,1.8,2470.686,13.28,0.035,115.1
2022-04-15T00:43:03,42.805,6.029,0.05,-0.016,0.012,101.0,106.0,102.0,13.4,1505.2,329.5,-0.8,1.9,2470.7,13.28,0.052,107.7
2022-04-15T00:46:03,42.805,6.029,0.02,0.01,0.024,104.0,106.0,101.0,13.4,1505.2,321.9,-0.7,1.8,2470.674,13.28,0.022,63.4
2022-04-15T00:49:03,42.805,6.029,0.042,0.008,0.046,101.0,109.0,102.0,13.3,1505.2,328.2,-0.7,1.9,2470.692,13.28,0.042,79.2
2022-04-15T00:52:03,42.805,6.029,0.051,0.005,0.029,102.0,106.0,102.0,13.4,1505.2,328.8,-0.7,1.8,2470.636,13.28,0.051,84.4
2022-04-15T00:55:03,42.805,6.029,0.011,0.015,0.009,101.0,106.0,102.0,13.3,1505.2,330.0,-0.8,1.8,2470.674,13.28,0.018,36.3
2022-04-15T00:58:03,42.805,6.029,0.027,-0.014,0.02,102.0,108.0,101.0,13.3,1505.2,327.4,-0.8,1.8,2470.711,13.28,0.03,117.4
2022-04-15T01:04:03,42.805,6.029,0.029,0.004,0.019,104.0,107.0,103.0,13.3,1505.2,326.0,-0.7,1.8,2470.713,13.28,0.029,82.2
2022-04-15T01:07:03,42.805,6.029,0.06,-0.006,0.032,102.0,106.0,102.0,13.3,1505.2,322.5,-0.7,1.8,2470.677,13.28,0.06,95.7
2022-04-15T01:10:03,42.805,6.029,0.033,-0.001,0.003,102.0,105.0,102.0,13.4,1505.2,328.2,-0.8,1.8,2470.679,13.28,0.033,91.7
2022-04-15T01:13:03,42.805,6.029,0.034,-0.005,0.014,102.0,105.0,101.0,13.4,1505.2,324.1,-0.8,1.8,2470.668,13.28,0.034,98.4
2022-04-15T01:16:03,42.805,6.029,0.061,-0.021,-0.006,102.0,108.0,102.0,13.4,1505.2,328.8,-0.8,1.8,2470.66,13.28,0.064,109.0
2022-04-15T01:19:03,42.805,6.029,-0.01,-0.002,-0.034,101.0,108.0,101.0,13.4,1505.2,325.4,-0.7,1.8,2470.67,13.28,0.01,258.7
2022-04-15T01:22:03,42.805,6.029,0.061,-0.005,0.035,102.0,107.0,101.0,13.3,1505.2,328.6,-0.8,1.8,2470.703,13.28,0.061,94.7
2022-04-15T01:25:03,42.805,6.029,0.022,0.011,0.032,103.0,108.0,100.0,13.4,1505.2,327.1,-0.7,1.9,2470.713,13.28,0.024,63.4
2022-04-15T01:28:03,42.805,6.029,0.037,0.0,0.01,102.0,106.0,103.0,13.4,1505.2,332.3,-0.7,1.8,2470.71,13.28,0.037,90.0
2022-04-15T01:31:03,42.805,6.029,0.057,-0.018,0.013,101.0,108.0,101.0,13.4,1505.2,325.2,-0.7,1.8,2470.751,13.28,0.059,107.5
2022-04-15T01:34:03,42.805,6.029,0.049,0.01,0.053,103.0,107.0,101.0,13.3,1505.2,327.4,-0.8,1.8,2470.695,13.28,0.05,78.5
2022-04-15T01:37:03,42.805,6.029,0.051,-0.007,0.014,103.0,106.0,100.0,13.4,1505.2,329.2,-0.7,1.8,2470.738,13.28,0.051,97.8
2022-04-15T01:40:03,42.805,6.029,0.044,0.001,0.019,104.0,107.0,101.0,13.4,1505.2,324.7,-0.8,1.8,2470.673,13.28,0.044,88.7
2022-04-15T01:43:03,42.805,6.029,0.052,-0.015,0.019,103.0,108.0,100.0,13.4,1505.2,327.7,-0.8,1.8,2470.731,13.28,0.054,106.1
2022-04-15T01:46:03,42.805,6.029,0.042,0.004,0.019,101.0,106.0,101.0,13.4,1505.2,324.8,-0.8,1.8,2470.72,13.28,0.042,84.6
2022-04-15T01:49:03,42.805,6.029,0.035,-0.004,0.036,103.0,106.0,102.0,13.4,1505.2,333.2,-0.8,1.9,2470.686,13.28,0.035,96.5
2022-04-15T01:52:03,42.805,6.029,0.029,0.015,0.017,101.0,105.0,102.0,13.4,1505.2,325.8,-0.8,1.8,2470.748,13.28,0.032,62.6
2022-04-15T01:55:03,42.805,6.029,0.02,0.011,0.021,101.0,106.0,102.0,13.3,1505.2,329.9,-0.8,1.8,2470.706,13.28,0.022,61.2
2022-04-15T01:58:03,42.805,6.029,0.025,0.005,-0.011,103.0,106.0,101.0,13.3,1505.2,327.2,-0.7,1.8,2470.717,13.28,0.025,78.7
2022-04-15T02:04:03,42.805,6.029,0.053,-0.011,0.006,102.0,106.0,102.0,13.4,1505.2,324.1,-0.8,1.8,2470.777,13.28,0.054,101.7
2022-04-15T02:07:03,42.805,6.029,0.046,-0.009,0.031,103.0,107.0,102.0,13.4,1505.2,326.2,-0.7,1.8,2470.757,13.28,0.046,101.1
2022-04-15T02:10:03,42.805,6.029,0.024,-0.006,0.013,103.0,105.0,101.0,13.4,1505.2,328.2,-0.8,1.9,2470.803,13.28,0.024,104.0
2022-04-15T02:13:03,42.805,6.029,0.039,0.004,0.036,102.0,105.0,102.0,13.4,1505.2,322.9,-0.7,1.9,2470.773,13.28,0.039,84.1
2022-04-15T02:16:03,42.805,6.029,0.006,0.015,0.0,102.0,107.0,101.0,13.4,1505.2,325.4,-0.8,1.8,2470.767,13.28,0.016,21.8
2022-04-15T02:19:03,42.805,6.029,0.058,0.004,0.037,103.0,106.0,101.0,13.4,1505.2,326.4,-0.7,1.8,2470.777,13.28,0.058,86.1
2022-04-15T02:22:03,42.805,6.029,0.036,0.0,0.037,103.0,106.0,101.0,13.3,1505.2,330.2,-0.7,1.8,2470.767,13.28,0.036,90.0
2022-04-15T02:25:03,42.805,6.029,0.017,-0.012,0.014,100.0,106.0,102.0,13.4,1505.2,328.5,-0.8,1.8,2470.77,13.28,0.02,125.2
2022-04-15T02:28:03,42.805,6.029,0.043,-0.003,0.034,101.0,108.0,100.0,13.4,1505.2,324.6,-0.8,1.8,2470.758,13.28,0.043,94.0
2022-04-15T02:31:03,42.805,6.029,-0.001,-0.003,-0.029,103.0,107.0,101.0,13.4,1505.2,325.5,-0.7,1.8,2470.726,13.28,0.003,198.4
2022-04-15T02:34:03,42.805,6.029,0.048,-0.003,0.014,103.0,107.0,101.0,13.4,1505.2,325.3,-0.8,1.8,2470.71,13.28,0.048,93.6
2022-04-15T02:37:03,42.805,6.029,0.036,0.019,0.05,104.0,106.0,101.0,13.4,1505.2,327.0,-0.7,1.8,2470.769,13.28,0.04,62.2
2022-04-15T02:40:03,42.805,6.029,0.047,0.0,0.0,103.0,105.0,101.0,13.4,1505.2,329.9,-0.7,1.8,2470.735,13.28,0.047,90.0
2022-04-15T02:43:03,42.805,6.029,0.031,-0.015,0.032,102.0,105.0,102.0,13.4,1505.2,325.6,-0.7,1.8,2470.758,13.28,0.034,115.8
2022-04-15T02:46:03,42.805,6.029,0.019,-0.02,-0.012,102.0,106.0,102.0,13.4,1505.2,329.7,-0.8,1.8,2470.762,13.28,0.027,136.5
2022-04-15T02:49:03,42.805,6.029,0.022,0.008,-0.013,103.0,105.0,101.0,13.4,1505.2,333.0,-0.7,1.8,2470.72,13.28,0.023,70.0
2022-04-15T02:52:03,42.805,6.029,0.022,0.009,0.054,103.0,106.0,101.0,13.3,1505.2,322.5,-0.8,1.8,2470.726,13.28,0.023,67.8
2022-04-15T02:55:03,42.805,6.029,0.075,-0.006,0.052,102.0,106.0,101.0,13.4,1505.2,329.8,-0.8,1.8,2470.723,13.28,0.075,94.6
2022-04-15T02:58:03,42.805,6.029,0.042,0.004,0.034,102.0,106.0,102.0,13.4,1505.2,322.8,-0.8,1.8,2470.766,13.28,0.042,84.6
2022-04-15T03:04:03,42.805,6.029,0.052,0.016,0.025,104.0,107.0,101.0,13.3,1505.2,324.2,-0.7,1.9,2470.742,13.28,0.054,72.9
2022-04-15T03:07:03,42.805,6.029,0.04,0.004,0.025,103.0,105.0,102.0,13.4,1505.2,324.7,-0.8,1.8,2470.761,13.28,0.04,84.3
2022-04-15T03:10:03,42.805,6.029,0.037,0.003,0.005,103.0,105.0,102.0,13.3,1505.2,326.8,-0.7,1.8,2470.782,13.28,0.037,85.4
2022-04-15T03:13:03,42.805,6.029,0.045,-0.021,-0.016,101.0,107.0,102.0,13.4,1505.2,329.8,-0.8,1.8,2470.778,13.28,0.049,115.0
2022-04-15T03:16:03,42.805,6.029,0.078,0.004,0.076,102.0,107.0,101.0,13.4,1505.2,325.3,-0.7,1.8,2470.761,13.28,0.078,87.1
2022-04-15T03:19:03,42.805,6.029,0.022,-0.014,0.022,101.0,108.0,101.0,13.4,1505.2,331.5,-0.7,1.8,2470.763,13.28,0.026,122.5
2022-04-15T03:22:03,42.805,6.029,0.06,-0.008,0.009,102.0,106.0,102.0,13.4,1505.2,325.7,-0.8,1.8,2470.729,13.28,0.06,97.6
2022-04-15T03:25:03,42.805,6.029,0.047,-0.001,0.004,102.0,107.0,101.0,13.3,1505.2,330.2,-0.8,1.8,2470.729,13.28,0.047,91.2
2022-04-15T03:28:03,42.805,6.029,0.044,-0.014,0.02,103.0,107.0,102.0,13.4,1505.2,323.9,-0.7,1.8,2470.746,13.28,0.046,107.6
2022-04-15T03:31:03,42.805,6.029,0.027,-0.002,0.021,103.0,107.0,101.0,13.4,1505.2,325.3,-0.7,1.8,2470.733,13.28,0.027,94.2
2022-04-15T03:34:03,42.805,6.029,0.054,0.007,0.026,102.0,104.0,102.0,13.3,1505.2,326.1,-0.8,1.8,2470.744,13.28,0.054,82.6
2022-04-15T03:37:03,42.805,6.029,0.0,0.006,-0.019,103.0,106.0,102.0,13.4,1505.2,325.7,-0.8,1.8,2470.681,13.28,0.006,0.0
2022-04-15T03:40:03,42.805,6.029,0.035,0.02,0.049,102.0,105.0,101.0,13.4,1505.2,332.3,-0.8,1.8,2470.714,13.28,0.04,60.3
2022-04-15T03:43:03,42.805,6.029,0.036,-0.025,0.003,103.0,106.0,102.0,13.4,1505.2,327.9,-0.8,1.8,2470.708,13.28,0.043,124.8
2022-04-15T03:46:03,42.805,6.029,0.064,-0.017,0.029,103.0,106.0,101.0,13.4,1505.2,329.5,-0.7,1.9,2470.731,13.28,0.066,104.9
2022-04-15T03:49:03,42.805,6.029,0.052,0.009,0.058,104.0,106.0,101.0,13.3,1505.2,326.3,-0.7,1.8,2470.719,13.28,0.052,80.2
2022-04-15T03:52:03,42.805,6.029,0.037,-0.022,-0.009,101.0,104.0,102.0,13.4,1505.2,325.3,-0.8,1.8,2470.727,13.28,0.043,120.7
2022-04-15T03:55:03,42.805,6.029,0.068,-0.021,0.011,102.0,106.0,102.0,13.4,1505.2,329.3,-0.8,1.8,2470.697,13.28,0.071,107.2
2022-04-15T03:58:03,42.805,6.029,0.047,-0.005,0.048,102.0,104.0,101.0,13.4,1505.2,327.0,-0.7,1.8,2470.708,13.28,0.047,96.1
2022-04-15T04:04:03,42.805,6.029,0.013,0.019,0.029,103.0,106.0,102.0,13.3,1505.2,325.9,-0.7,1.8,2470.743,13.28,0.023,34.4
2022-04-15T04:07:03,42.805,6.029,0.043,-0.017,0.03,103.0,105.0,101.0,13.4,1505.2,329.8,-0.8,1.8,2470.726,13.28,0.046,111.6
2022-04-15T04:10:03,42.805,6.029,0.062,-0.01,0.044,103.0,105.0,101.0,13.4,1505.2,328.3,-0.7,1.8,2470.754,13.28,0.062,99.2
2022-04-15T04:13:03,42.805,6.029,0.029,-0.007,0.0,103.0,104.0,102.0,13.4,1505.2,325.6,-0.7,1.8,2470.706,13.28,0.029,103.6
2022-04-15T04:16:03,42.805,6.029,0.051,-0.011,0.035,103.0,107.0,101.0,13.3,1505.2,325.6,-0.8,1.8,2470.74,13.28,0.052,102.2
2022-04-15T04:19:03,42.805,6.029,0.033,-0.004,0.019,104.0,106.0,99.0,13.4,1505.2,327.8,-0.7,1.8,2470.749,13.28,0.033,96.9
2022-04-15T04:22:03,42.805,6.029,0.033,-0.014,0.004,103.0,105.0,102.0,13.4,1505.2,329.2,-0.8,1.8,2470.746,13.28,0.035,113.0
2022-04-15T04:25:03,42.805,6.029,0.03,-0.01,0.029,104.0,106.0,101.0,13.3,1505.2,329.6,-0.7,1.8,2470.695,13.28,0.031,108.4
2022-04-15T04:28:03,42.805,6.029,0.037,0.006,0.005,104.0,104.0,102.0,13.4,1505.2,329.5,-0.8,1.8,2470.754,13.28,0.037,80.8
2022-04-15T04:31:03,42.805,6.029,0.034,-0.018,0.028,103.0,106.0,102.0,13.4,1505.2,328.3,-0.8,1.8,2470.669,13.28,0.038,117.9
2022-04-15T04:34:03,42.805,6.029,0.058,-0.018,0.038,102.0,106.0,101.0,13.4,1505.2,332.5,-0.7,1.8,2470.736,13.28,0.06,107.2
2022-04-15T04:37:03,42.805,6.029,0.039,0.013,0.031,103.0,106.0,101.0,13.4,1505.2,326.6,-0.7,1.8,2470.765,13.28,0.041,71.6
2022-04-15T04:40:03,42.805,6.029,0.067,-0.023,-0.002,102.0,107.0,101.0,13.4,1505.2,323.2,-0.7,1.8,2470.78,13.28,0.07,108.9
2022-04-15T04:43:03,42.805,6.029,0.076,-0.023,0.043,102.0,106.0,101.0,13.4,1505.2,327.4,-0.7,1.8,2470.685,13.28,0.079,106.8
2022-04-15T04:46:03,42.805,6.029,0.067,-0.013,0.006,103.0,105.0,102.0,13.4,1505.2,327.9,-0.7,1.8,2470.703,13.28,0.068,101.0
2022-04-15T04:49:03,42.805,6.029,0.055,-0.012,0.02,102.0,105.0,102.0,13.4,1505.2,332.6,-0.8,1.8,2470.689,13.28,0.056,102.3
2022-04-15T04:52:03,42.805,6.029,0.042,-0.007,0.021,102.0,104.0,102.0,13.4,1505.2,328.8,-0.8,1.8,2470.729,13.28,0.042,99.5
2022-04-15T04:55:03,42.805,6.029,0.039,-0.019,0.015,102.0,105.0,101.0,13.3,1505.2,325.8,-0.7,1.8,2470.814,13.28,0.043,116.0
2022-04-15T04:58:03,42.805,6.029,0.033,0.001,0.011,103.0,105.0,102.0,13.4,1505.2,324.3,-0.8,1.8,2470.853,13.28,0.033,88.3
2022-04-15T05:04:03,42.805,6.029,0.055,-0.003,0.003,103.0,105.0,101.0,13.4,1505.2,324.9,-0.8,1.8,2470.917,13.28,0.055,93.1
2022-04-15T05:07:03,42.805,6.029,0.023,0.008,0.027,101.0,105.0,102.0,13.3,1505.2,332.5,-0.7,1.8,2470.899,13.28,0.024,70.8
2022-04-15T05:10:03,42.805,6.029,0.02,-0.023,-0.051,101.0,105.0,102.0,13.4,1505.2,332.3,-0.8,1.8,2470.785,13.28,0.03,139.0
2022-04-15T05:13:03,42.805,6.029,0.054,-0.019,-0.015,102.0,105.0,102.0,13.4,1505.2,329.1,-0.8,1.8,2470.784,13.28,0.057,109.4
2022-04-15T05:16:03,42.805,6.029,0.028,-0.013,0.017,104.0,104.0,101.0,13.4,1505.2,324.1,-0.8,1.8,2470.623,13.28,0.03,114.9
2022-04-15T05:19:03,42.805,6.029,0.044,-0.007,0.013,104.0,104.0,100.0,13.4,1505.2,329.4,-0.7,1.8,2470.577,13.28,0.044,99.0
2022-04-15T05:22:03,42.805,6.029,0.037,-0.01,-0.003,103.0,104.0,102.0,13.4,1505.2,323.9,-0.7,1.8,2470.557,13.28,0.038,105.1
2022-04-15T05:25:03,42.805,6.029,0.036,0.0,-0.023,102.0,103.0,102.0,13.4,1505.2,324.5,-0.8,1.8,2470.616,13.28,0.036,90.0
2022-04-15T05:28:03,42.805,6.029,0.025,0.006,0.011,103.0,104.0,102.0,13.3,1505.2,322.0,-0.7,1.8,2470.59,13.28,0.025,76.5
2022-04-15T05:31:03,42.805,6.029,0.031,0.004,-0.035,103.0,105.0,101.0,13.4,1505.2,325.8,-0.8,1.8,2470.669,13.28,0.031,82.7
2022-04-15T05:34:03,42.805,6.029,0.025,0.001,-0.005,103.0,105.0,101.0,13.3,1505.2,327.3,-0.8,1.8,2470.675,13.28,0.025,87.7
2022-04-15T05:37:03,42.805,6.029,0.05,-0.005,0.0,101.0,104.0,102.0,13.4,1505.2,325.4,-0.8,1.8,2470.697,13.28,0.05,95.7
2022-04-15T05:40:03,42.805,6.029,0.022,0.0,-0.017,102.0,104.0,101.0,13.3,1505.2,331.0,-0.7,1.8,2470.762,13.28,0.022,90.0
2022-04-15T05:43:03,42.805,6.029,0.056,-0.01,0.014,105.0,104.0,103.0,13.4,1505.2,324.3,-0.7,1.8,2470.761,13.28,0.056,100.1
2022-04-15T05:46:03,42.805,6.029,0.034,0.01,0.043,103.0,105.0,100.0,13.3,1505.2,329.0,-0.7,1.8,2470.701,13.28,0.035,73.6
2022-04-15T05:49:03,42.805,6.029,0.04,-0.001,0.022,103.0,104.0,102.0,13.3,1505.2,327.1,-0.8,1.8,2470.716,13.28,0.04,91.4
2022-04-15T05:52:03,42.805,6.029,0.046,-0.005,0.033,102.0,104.0,102.0,13.3,1505.2,327.4,-0.7,1.9,2471.262,13.28,0.046,96.2
2022-04-15T05:55:03,42.805,6.029,0.048,-0.013,0.017,103.0,105.0,101.0,13.4,1505.2,332.7,-0.7,1.8,2471.059,13.28,0.049,105.2
2022-04-15T05:58:03,42.805,6.029,0.045,-0.006,0.019,104.0,104.0,101.0,13.4,1505.2,325.0,-0.8,1.8,2471.181,13.28,0.045,97.6
2022-04-15T06:04:03,42.805,6.029,0.028,-0.015,0.002,103.0,105.0,101.0,13.4,1505.2,327.2,-0.8,1.8,2470.973,13.28,0.031,118.2
2022-04-15T06:07:03,42.805,6.029,0.029,-0.016,0.004,103.0,105.0,102.0,13.3,1505.2,328.4,-0.8,1.8,2470.744,13.28,0.033,118.9
2022-04-15T06:10:03,42.805,6.029,0.048,-0.016,0.037,102.0,104.0,101.0,13.4,1505.2,324.2,-0.8,1.8,2470.559,13.28,0.05,108.4
2022-04-15T06:13:03,42.805,6.029,0.046,-0.026,0.014,104.0,103.0,103.0,13.4,1505.2,325.1,-0.7,1.8,2470.593,13.28,0.052,119.5
2022-04-15T06:16:03,42.805,6.029,0.047,-0.012,0.008,105.0,106.0,100.0,13.3,1505.2,329.1,-0.8,1.9,2470.618,13.28,0.048,104.3
2022-04-15T06:19:03,42.805,6.029,0.046,-0.024,0.003,104.0,102.0,102.0,13.3,1505.2,326.3,-0.8,1.8,2470.693,13.28,0.051,117.6
2022-04-15T06:22:03,42.805,6.029,0.044,-0.001,0.024,103.0,105.0,101.0,13.4,1505.2,325.2,-0.8,1.8,2470.727,13.28,0.044,91.3
2022-04-15T06:25:03,42.805,6.029,0.051,-0.015,-0.006,102.0,105.0,102.0,13.4,1505.2,330.6,-0.8,1.8,2471.115,13.28,0.053,106.4
2022-04-15T06:28:03,42.805,6.029,0.056,-0.018,0.008,103.0,104.0,102.0,13.3,1505.2,325.1,-0.8,1.8,2471.397,13.28,0.058,107.8
2022-04-15T06:31:03,42.805,6.029,0.025,-0.003,-0.005,103.0,104.0,102.0,13.3,1505.2,324.8,-0.7,1.8,2471.35,13.28,0.025,96.8
2022-04-15T06:34:03,42.805,6.029,0.011,-0.001,-0.008,104.0,104.0,102.0,13.4,1505.2,325.3,-0.8,1.8,2471.194,13.28,0.011,95.2
2022-04-15T06:37:03,42.805,6.029,0.037,-0.03,0.001,104.0,106.0,102.0,13.4,1505.2,330.0,-0.7,1.8,2470.982,13.28,0.047,129.0
2022-04-15T06:40:03,42.805,6.029,0.042,0.013,-0.001,103.0,106.0,100.0,13.4,1505.2,325.0,-0.8,1.8,2470.814,13.28,0.043,72.8
2022-04-15T06:43:03,42.805,6.029,0.034,-0.003,0.012,102.0,105.0,102.0,13.4,1505.2,326.2,-0.8,1.8,2470.753,13.28,0.034,95.0
2022-04-15T06:46:03,42.805,6.029,0.056,0.014,0.042,104.0,103.0,101.0,13.4,1505.2,329.6,-0.8,1.8,2470.729,13.28,0.057,76.0
2022-04-15T06:49:03,42.805,6.029,0.054,-0.002,0.039,101.0,107.0,102.0,13.4,1505.2,322.5,-0.8,1.8,2470.721,13.28,0.054,92.1
2022-04-15T06:52:03,42.805,6.029,0.049,-0.01,0.0,104.0,104.0,101.0,13.3,1505.2,330.4,-0.8,1.8,2470.644,13.28,0.05,101.5
2022-04-15T06:55:03,42.805,6.029,0.054,-0.013,0.036,102.0,104.0,102.0,13.4,1505.2,327.0,-0.7,1.9,2470.632,13.28,0.055,103.5
2022-04-15T06:58:03,42.805,6.029,0.044,-0.021,0.025,103.0,105.0,101.0,13.4,1505.2,329.7,-0.8,1.8,2470.644,13.28,0.048,115.5
2022-04-15T07:04:03,42.805,6.029,0.05,0.006,0.032,103.0,104.0,102.0,13.4,1505.2,323.0,-0.8,1.8,2470.649,13.28,0.05,83.2
2022-04-15T07:07:03,42.805,6.029,0.055,-0.038,-0.007,103.0,105.0,101.0,13.4,1505.2,329.2,-0.7,1.8,2470.646,13.28,0.066,124.6
2022-04-15T07:10:03,42.805,6.029,0.044,0.0,-0.018,103.0,104.0,102.0,13.3,1505.2,322.7,-0.8,1.9,2470.666,13.28,0.044,90.0
2022-04-15T07:13:03,42.805,6.029,0.033,0.008,0.008,104.0,105.0,102.0,13.3,1505.2,330.5,-0.8,1.8,2470.667,13.28,0.033,76.4
2022-04-15T07:16:03,42.805,6.029,0.052,-0.005,0.016,103.0,104.0,102.0,13.4,1505.2,326.5,-0.7,1.8,2470.658,13.28,0.052,95.5
2022-04-15T07:19:03,42.805,6.029,0.054,0.0,0.009,104.0,104.0,102.0,13.4,1505.2,328.3,-0.7,1.8,2470.726,13.28,0.053,90.0
2022-04-15T07:22:03,42.805,6.029,0.035,-0.01,0.023,104.0,103.0,101.0,13.3,1505.2,327.9,-0.8,1.8,2470.658,13.28,0.036,105.9
2022-04-15T07:25:03,42.805,6.029,0.048,0.007,0.021,104.0,104.0,101.0,13.4,1505.2,332.3,-0.8,1.8,2470.728,13.28,0.048,81.7
2022-04-15T07:28:03,42.805,6.029,0.029,-0.009,0.01,103.0,104.0,101.0,13.3,1505.2,325.3,-0.7,1.8,2470.708,13.28,0.03,107.2
2022-04-15T07:31:03,42.805,6.029,0.039,-0.003,0.038,103.0,104.0,101.0,13.4,1505.2,323.0,-0.7,1.8,2470.697,13.28,0.039,94.4
2022-04-15T07:34:03,42.805,6.029,0.035,-0.02,-0.015,104.0,103.0,102.0,13.3,1505.2,328.8,-0.7,1.8,2470.689,13.28,0.04,119.7
2022-04-15T07:37:03,42.805,6.029,0.038,0.0,-0.018,102.0,103.0,103.0,13.4,1505.2,325.2,-0.8,1.8,2470.697,13.28,0.038,90.0
2022-04-15T07:40:03,42.805,6.029,0.019,0.016,0.021,103.0,103.0,102.0,13.4,1505.2,327.8,-0.8,1.8,2470.713,13.28,0.024,49.9
2022-04-15T07:43:03,42.805,6.029,0.036,0.002,0.001,103.0,104.0,102.0,13.4,1505.2,328.3,-0.8,1.8,2470.717,13.28,0.036,86.8
2022-04-15T07:46:03,42.805,6.029,0.041,0.002,0.028,103.0,104.0,102.0,13.3,1505.2,328.4,-0.7,1.8,2470.665,13.28,0.041,87.2
2022-04-15T07:49:03,42.805,6.029,0.03,-0.011,0.007,105.0,103.0,101.0,13.4,1505.2,326.8,-0.7,1.8,2470.707,13.28,0.031,110.1
2022-04-15T07:52:03,42.805,6.029,0.015,-0.013,-0.008,103.0,105.0,101.0,13.4,1505.2,331.3,-0.7,1.8,2470.723,13.28,0.019,130.9
2022-04-15T07:55:03,42.805,6.029,0.066,-0.026,0.01,103.0,105.0,102.0,13.4,1505.2,323.7,-0.7,1.8,2470.736,13.28,0.07,111.5
2022-04-15T07:58:03,42.805,6.029,0.025,-0.016,0.006,102.0,104.0,102.0,13.4,1505.2,332.5,-0.7,1.8,2470.761,13.28,0.029,122.6
2022-04-15T08:04:03,42.805,6.029,0.035,-0.006,0.006,104.0,103.0,101.0,13.3,1505.2,323.8,-0.8,1.8,2470.759,13.28,0.035,99.7
2022-04-15T08:07:03,42.805,6.029,0.034,-0.036,-0.01,102.0,105.0,101.0,13.4,1505.2,330.9,-0.7,1.9,2470.726,13.28,0.049,136.6
2022-04-15T08:10:03,42.805,6.029,0.063,-0.015,0.024,102.0,105.0,102.0,13.4,1505.2,327.3,-0.8,1.9,2470.753,13.28,0.064,103.4
2022-04-15T08:13:03,42.805,6.029,0.036,0.002,0.031,103.0,103.0,102.0,13.4,1505.2,331.6,-0.8,1.8,2470.7,13.28,0.036,86.8
2022-04-15T08:16:03,42.805,6.029,0.037,-0.021,0.023,103.0,103.0,103.0,13.4,1505.2,331.3,-0.7,1.8,2470.724,13.28,0.042,119.6
2022-04-15T08:19:03,42.805,6.029,0.049,-0.007,-0.004,102.0,104.0,101.0,13.4,1505.2,326.4,-0.8,1.8,2470.72,13.28,0.049,98.1
2022-04-15T08:22:03,42.805,6.029,0.044,-0.005,0.013,103.0,105.0,102.0,13.4,1505.2,327.4,-0.8,1.9,2470.711,13.28,0.044,96.5
2022-04-15T08:25:03,42.805,6.029,0.059,-0.023,0.009,102.0,103.0,101.0,13.3,1505.2,322.3,-0.8,1.8,2470.735,13.28,0.063,111.3
2022-04-15T08:28:03,42.805,6.029,0.034,-0.011,0.013,103.0,104.0,102.0,13.4,1505.2,326.6,-0.7,1.8,2470.711,13.28,0.035,107.9
2022-04-15T08:31:03,42.805,6.029,0.03,-0.025,-0.004,102.0,103.0,101.0,13.4,1505.2,327.4,-0.7,1.8,2470.747,13.28,0.039,129.8
2022-04-15T08:34:03,42.805,6.029,0.047,-0.009,0.008,103.0,104.0,101.0,13.4,1505.2,322.0,-0.8,1.8,2470.765,13.28,0.047,100.8
2022-04-15T08:37:03,42.805,6.029,0.038,-0.01,0.024,102.0,105.0,102.0,13.4,1505.2,321.8,-0.8,1.8,2470.75,13.28,0.039,104.7
2022-04-15T08:40:03,42.805,6.029,0.041,-0.024,0.008,101.0,104.0,101.0,13.4,1505.2,331.9,-0.7,1.8,2471.197,13.28,0.047,120.3
2022-04-15T08:43:03,42.805,6.029,0.01,-0.003,-0.004,103.0,105.0,101.0,13.4,1505.2,330.4,-0.8,1.8,2471.393,13.28,0.01,106.7
2022-04-15T08:46:03,42.805,6.029,0.038,0.0,0.004,103.0,104.0,102.0,13.4,1505.2,330.0,-0.7,1.8,2471.453,13.28,0.038,90.0
2022-04-15T08:49:03,42.805,6.029,0.047,-0.026,-0.02,104.0,105.0,101.0,13.4,1505.2,325.2,-0.7,1.8,2471.704,13.28,0.053,118.9
2022-04-15T08:52:03,42.805,6.029,0.026,-0.009,0.019,102.0,105.0,100.0,13.3,1505.2,327.8,-0.8,1.8,2471.783,13.28,0.027,109.1
2022-04-15T08:55:03,42.805,6.029,0.018,0.0,-0.008,103.0,105.0,101.0,13.4,1505.2,322.4,-0.8,1.8,2471.756,13.28,0.018,90.0
2022-04-15T08:58:03,42.805,6.029,0.05,-0.014,0.008,102.0,103.0,102.0,13.4,1505.2,328.5,-0.8,1.8,2471.688,13.28,0.051,105.6
2022-04-15T09:04:03,42.805,6.029,0.031,-0.001,0.024,104.0,103.0,102.0,13.3,1505.2,323.5,-0.7,1.8,2471.803,13.28,0.031,91.8
2022-04-15T09:07:03,42.805,6.029,0.047,-0.015,-0.013,103.0,104.0,102.0,13.3,1505.2,327.4,-0.7,1.8,2471.826,13.28,0.049,107.7
2022-04-15T09:10:03,42.805,6.029,0.034,-0.037,0.009,103.0,102.0,102.0,13.4,1505.2,328.3,-0.8,1.8,2471.869,13.28,0.05,137.4
2022-04-15T09:13:03,42.805,6.029,0.038,-0.005,0.009,103.0,103.0,101.0,13.4,1505.2,322.3,-0.7,1.8,2471.906,13.28,0.038,97.5
2022-04-15T09:16:03,42.805,6.029,0.045,0.009,0.018,102.0,103.0,101.0,13.4,1505.2,322.9,-0.7,1.9,2471.959,13.28,0.045,78.7
2022-04-15T09:19:03,42.805,6.029,0.025,-0.025,-0.024,102.0,105.0,102.0,13.3,1505.2,324.8,-0.8,1.8,2471.957,13.28,0.035,135.0
2022-04-15T09:22:03,42.805,6.029,0.001,-0.006,-0.046,102.0,104.0,102.0,13.3,1505.2,331.4,-0.8,1.8,2471.981,13.28,0.006,170.5
2022-04-15T09:25:03,42.805,6.029,0.031,0.003,0.003,102.0,104.0,102.0,13.4,1505.2,324.8,-0.8,1.8,2472.089,13.28,0.031,84.5
2022-04-15T09:28:03,42.805,6.029,0.023,-0.005,0.009,104.0,105.0,102.0,13.4,1505.2,332.1,-0.8,1.8,2472.237,13.28,0.023,102.3
2022-04-15T09:31:03,42.805,6.029,0.04,0.001,0.011,101.0,106.0,102.0,13.4,1505.2,328.3,-0.8,1.8,2472.406,13.28,0.04,88.6
2022-04-15T09:34:03,42.805,6.029,0.046,-0.019,0.006,105.0,102.0,102.0,13.3,1505.2,330.8,-0.7,1.8,2472.555,13.28,0.049,112.4
2022-04-15T09:37:03,42.805,6.029,0.059,-0.002,0.02,102.0,104.0,102.0,13.3,1505.2,324.6,-0.7,1.8,2472.736,13.28,0.059,91.9
2022-04-15T09:40:03,42.805,6.029,0.034,0.0,0.004,102.0,103.0,102.0,13.4,1505.2,332.6,-0.8,1.8,2472.866,13.28,0.034,90.0
2022-04-15T09:43:03,42.805,6.029,0.043,-0.029,0.063,103.0,103.0,101.0,13.4,1505.2,333.2,-0.7,1.8,2472.985,13.28,0.051,124.0
2022-04-15T09:46:03,42.805,6.029,0.027,-0.012,0.013,102.0,103.0,103.0,13.3,1505.2,330.0,-0.7,1.8,2473.234,13.28,0.029,114.0
2022-04-15T09:49:03,42.805,6.029,0.048,-0.008,0.011,104.0,102.0,101.0,13.4,1505.2,327.1,-0.8,1.8,2473.51,13.28,0.048,99.5
2022-04-15T09:52:03,42.805,6.029,0.024,-0.027,0.006,103.0,104.0,101.0,13.4,1505.2,331.1,-0.8,1.8,2473.565,13.28,0.036,138.4
2022-04-15T09:55:03,42.805,6.029,0.038,-0.015,-0.012,103.0,104.0,100.0,13.4,1505.2,323.8,-0.8,1.8,2473.471,13.28,0.04,111.5
2022-04-15T09:58:03,42.805,6.029,0.041,-0.046,-0.009,103.0,104.0,101.0,13.3,1505.2,330.4,-0.8,1.8,2473.366,13.28,0.061,138.3
2022-04-15T10:04:03,42.805,6.029,0.025,-0.001,0.005,103.0,102.0,102.0,13.4,1505.2,327.1,-0.8,1.8,2473.304,13.28,0.025,92.3